Miscellaneous Local Product
Issued by NWS Hastings, NE

Home | Current Version | Previous Version | Text Only | Print | Product List | Glossary On
Versions: 1 2 3 4 5 6 7 8 9 10 11 12 13 14 15 16 17 18 19 20 21 22 23 24 25 26 27 28 29 30 31 32 33 34 35 36 37 38 39 40 41 42 43 44 45 46 47 48 49 50
000
AXUS43 KGID 301902
MISGRI

GID CWA HOURLY WEATHER ROUNDUP
NATIONAL WEATHER SERVICE HASTINGS NE
200 PM CDT WED JUL 30 2014

NOTE: "FAIR" INDICATES FEW OR NO CLOUDS BELOW 12,000 FEET WITH NO
SIGNIFICANT WEATHER AND/OR OBSTRUCTIONS TO VISIBILITY.

...SOUTH CENTRAL NEBRASKA...

CITY           SKY/WX    TMP DP  RH WIND       PRES   REMARKS
GRAND ISLAND   MOSUNNY   78  55  44 SE7       30.17F
HASTINGS       MOSUNNY   76  54  46 MISG      30.18F
KEARNEY        PTSUNNY   77  54  44 NE5       30.19S
ORD            MOSUNNY   79  55  43 VRB3      30.16F
YORK           MOSUNNY   77  55  47 NE9       30.17F
AURORA         MOSUNNY   77  56  48 NE6       30.17F
LEXINGTON      MOSUNNY   79  56  45 S5        30.19S
HOLDREGE       MOSUNNY   76  55  46 CALM      30.19S
HEBRON         CLOUDY    76  50  39 N7        30.15F

...NEBRASKA PANHANDLE...

CITY           SKY/WX    TMP DP  RH WIND       PRES   REMARKS
CHADRON        PTSUNNY   80  50  34 SW8       30.20F
ALLIANCE       PTSUNNY   77  49  37 NE5       30.24F
SCOTTSBLUFF    CLOUDY    75  55  49 CALM      30.26F
SIDNEY         CLOUDY    70  58  65 VRB3      30.29F

...WESTERN AND NORTH CENTRAL NEBRASKA...

CITY           SKY/WX    TMP DP  RH WIND       PRES   REMARKS
VALENTINE      MOSUNNY   81  49  32 VRB3      30.17F
AINSWORTH      MOSUNNY   78  50  37 CALM      30.18F
ONEILL         PTSUNNY   79  56  45 NE6       30.17S THUNDER
BROKEN BOW     PTSUNNY   80  56  43 N7        30.18F
IMPERIAL       PTSUNNY   74  57  55 VRB5      30.24F
NORTH PLATTE   PTSUNNY   78  51  38 VRB6      30.19F
MCCOOK         CLOUDY    75  57  53 E6        30.21F

...EASTERN NEBRASKA...

CITY           SKY/WX    TMP DP  RH WIND       PRES   REMARKS
NORFOLK        MOSUNNY   80  52  37 N8        30.15F
SO SIOUX CITY  PTSUNNY   77  55  46 CALM      30.14S
TEKAMAH        MOSUNNY   79  51  37 N6        30.13F
ALBION         MOSUNNY   77  56  48 E3        30.16F
OMAHA EPPLEY   MOSUNNY   79  52  38 VRB7      30.13F
OFFUTT AFB     MOSUNNY   81  56  41 N5        30.13F
MILLARD        PTSUNNY   80  52  38 N6        30.13F
LINCOLN        MOSUNNY   83  50  31 MISG      30.15F
NEBRASKA CITY  MOSUNNY   77  50  37 NE6       30.14S
BEATRICE       MOSUNNY   77  54  44 E6        30.15S
FALLS CITY     PTSUNNY   80  53  39 NE6       30.12F

...NORTHERN KANSAS...

CITY           SKY/WX    TMP DP  RH WIND       PRES   REMARKS
GOODLAND       CLOUDY    67  57  70 E13       30.26F
HILL CITY      CLOUDY    73  57  57 VRB3      30.20S
NORTON         MOCLDY    79  54  41 E7        30.19F
PHILLIPSBURG   PTSUNNY   75  57  53 NE7       30.18S
SMITH CENTER   MOSUNNY   75  55  50 E9        30.18F
HAYS           CLOUDY    70  59  68 E9        30.17F
RUSSELL        LGT RAIN  69  62  78 E8        30.15F
CONCORDIA      CLOUDY    74  58  57 VRB3      30.15F
SALINA         CLOUDY    70  62  76 E6        30.15F
TOPEKA         CLOUDY    78  56  46 E5        30.12F



USA.gov is the U.S. government's official web portal to all federal, state and local government web resources and services.